Minden, LA

4:35 AM CDT on April 29, 2017 (GMT -0500)
Minden

Weather History for KMNE - December, 2012

Change the Weather History Date:

Monday, December 24, 2012

  Actual Average (KBAD) Record (KBAD)
Temperature  
Mean Temperature 54 °F -  
Max Temperature 67 °F 55 °F 75 °F (2015)
Min Temperature 41 °F 34 °F 21 °F (1998)
Degree Days  
Heating Degree Days 11    
Growing Degree Days 4 (Base 50)    
Moisture  
Dew Point 44 °F    
Average Humidity 68    
Maximum Humidity 90    
Minimum Humidity 41    
Precipitation  
Precipitation 0.00 in - - ()
Sea Level Pressure  
Sea Level Pressure 29.90 in    
Wind  
Wind Speed 3 mph (NW)    
Max Wind Speed 8 mph    
Max Gust Speed -    
Visibility 10 miles    
Events      
Averages and records for this station are not official NWS values.
T = Trace of Precipitation, MM = Missing Value Source: NWS Daily Summary

Daily Weather History Graph

Daily Weather History Graph

Search for Another Location

Airport or City:

Trip Planner

Search our weather history database for the weather conditions in past years. The results will help you decide how hot, cold, wet, or windy it might be!

Date:

Astronomy

Dec. 24, 2012 Rise Set
Actual Time 7:12 AM CST 5:13 PM CST
Civil Twilight 6:45 AM CST 5:40 PM CST
Nautical Twilight 6:14 AM CST 6:11 PM CST
Astronomical Twilight 5:44 AM CST 6:41 PM CST
Moon 2:37 PM CST (12/24) 3:56 AM CST (12/24)
Length of Visible Light 10h 54m
Length of Day
10h 00m
Waxing Gibbous, 88% of the Moon is Illuminated
Dec 24
Waxing Gibbous
Dec 28
Full
Jan 4
Last Quarter
Jan 11
New
Jan 18
First Quarter

Hourly Weather History & Observations

Time (CST) Temp. Windchill Dew Point Humidity Pressure Visibility Wind Dir Wind Speed Gust Speed Precip Events Conditions
12:15 AM 60.3 °F - 57.4 °F 90% 29.86 in 10.0 mi Calm Calm - N/A   Overcast
12:35 AM 60.6 °F - 57.6 °F 90% 29.86 in 10.0 mi WSW 3.5 mph - N/A   Mostly Cloudy
12:55 AM 59.4 °F - 52.2 °F 77% 29.86 in 10.0 mi West 5.8 mph - N/A   Scattered Clouds
1:15 AM 58.6 °F - 50.4 °F 74% 29.86 in 10.0 mi West 5.8 mph - N/A   Scattered Clouds
1:35 AM 57.4 °F - 50.4 °F 77% 29.86 in 10.0 mi Calm Calm - N/A   Scattered Clouds
1:55 AM 56.5 °F - 50.9 °F 82% 29.86 in 10.0 mi West 4.6 mph - N/A   Clear
2:15 AM 55.4 °F - 49.1 °F 79% 29.86 in 10.0 mi West 3.5 mph - N/A   Clear
2:35 AM 54.5 °F - 48.6 °F 80% 29.87 in 10.0 mi WNW 4.6 mph - N/A   Clear
2:55 AM 53.6 °F - 41.9 °F 65% 29.87 in 10.0 mi West 4.6 mph - N/A   Clear
3:15 AM 52.7 °F - 41.7 °F 66% 29.87 in 10.0 mi West 4.6 mph - N/A   Clear
3:35 AM 52.0 °F - 41.2 °F 67% 29.87 in 10.0 mi West 5.8 mph - N/A   Clear
3:55 AM 50.2 °F - 39.7 °F 67% 29.88 in 10.0 mi West 6.9 mph - N/A   Clear
4:15 AM 50.4 °F - 37.6 °F 62% 29.89 in 10.0 mi WNW 8.1 mph - N/A   Clear
4:35 AM 49.5 °F - 36.1 °F 60% 29.88 in 10.0 mi WNW 3.5 mph - N/A   Clear
4:55 AM 48.4 °F - 35.8 °F 62% 29.89 in 10.0 mi West 3.5 mph - N/A   Clear
5:15 AM 46.6 °F - 36.9 °F 69% 29.90 in 10.0 mi Calm Calm - N/A   Clear
5:35 AM 46.0 °F - 36.0 °F 68% 29.90 in 10.0 mi Calm Calm - N/A   Clear
5:55 AM 45.0 °F 43.5 °F 35.6 °F 70% 29.91 in 10.0 mi NW 3.5 mph - N/A   Clear
6:15 AM 44.6 °F - 34.9 °F 69% 29.91 in 10.0 mi Calm Calm - N/A   Clear
6:35 AM 42.8 °F - 36.0 °F 77% 29.92 in 10.0 mi Calm Calm - N/A   Clear
6:55 AM 41.9 °F - 36.3 °F 81% 29.93 in 10.0 mi Calm Calm - N/A   Clear
7:15 AM 42.3 °F 40.5 °F 34.7 °F 75% 29.94 in 10.0 mi NW 3.5 mph - N/A   Clear
7:35 AM 42.3 °F - 34.2 °F 73% 29.95 in 10.0 mi Calm Calm - N/A   Clear
7:55 AM 41.2 °F - 37.0 °F 85% 29.96 in 10.0 mi Calm Calm - N/A   Clear
8:15 AM 44.1 °F 41.5 °F 34.5 °F 69% 29.96 in 10.0 mi WNW 4.6 mph - N/A   Clear
8:35 AM 44.8 °F 43.3 °F 34.2 °F 66% 29.95 in 10.0 mi NW 3.5 mph - N/A   Clear
8:55 AM 45.9 °F 43.6 °F 34.3 °F 64% 29.96 in 10.0 mi WNW 4.6 mph - N/A   Clear
9:15 AM 46.9 °F - 35.1 °F 63% 29.98 in 10.0 mi NNW 8.1 mph - N/A   Clear
9:35 AM 48.4 °F - 35.6 °F 61% 29.98 in 10.0 mi NNW 8.1 mph - N/A   Clear
9:55 AM 50.2 °F - 36.3 °F 59% 29.99 in 10.0 mi NNW 5.8 mph - N/A   Clear
10:15 AM 52.2 °F - 37.4 °F 57% 29.99 in 10.0 mi NNW 3.5 mph - N/A   Clear
10:35 AM 54.0 °F - 38.5 °F 56% 29.99 in 10.0 mi NW 6.9 mph - N/A   Clear
10:55 AM 55.4 °F - 39.4 °F 55% 29.98 in 10.0 mi NNW 5.8 mph - N/A   Clear
11:15 AM 57.6 °F - 40.3 °F 53% 29.97 in 10.0 mi Calm Calm - N/A   Clear
11:35 AM 59.0 °F - 41.2 °F 52% 29.96 in 10.0 mi Calm Calm - N/A   Clear
11:55 AM 61.0 °F - 42.3 °F 50% 29.95 in 10.0 mi Calm Calm - N/A   Clear
12:15 PM 61.5 °F - 42.6 °F 50% 29.94 in 10.0 mi Calm Calm - N/A   Clear
12:35 PM 61.7 °F - 43.0 °F 50% 29.93 in 10.0 mi Calm Calm - N/A   Clear
12:55 PM 63.0 °F - 43.2 °F 48% 29.91 in 10.0 mi Calm Calm - N/A   Clear
1:15 PM 63.9 °F - 43.3 °F 47% 29.91 in 10.0 mi Calm Calm - N/A   Clear
1:35 PM 64.6 °F - 43.7 °F 47% 29.90 in 10.0 mi Calm Calm - N/A   Clear
1:55 PM 66.2 °F - 44.4 °F 45% 29.89 in 10.0 mi Calm Calm - N/A   Clear
2:15 PM 66.2 °F - 43.9 °F 44% 29.89 in 10.0 mi Calm Calm - N/A   Clear
2:35 PM 67.3 °F - 43.0 °F 41% 29.89 in 10.0 mi ESE 5.8 mph - N/A   Clear
2:55 PM 66.2 °F - 43.3 °F 44% 29.89 in 10.0 mi Calm Calm - N/A   Clear
3:15 PM 65.8 °F - 43.5 °F 44% 29.88 in 10.0 mi SE 3.5 mph - N/A   Clear
3:35 PM 65.7 °F - 43.3 °F 44% 29.87 in 10.0 mi ESE 3.5 mph - N/A   Clear
3:55 PM 64.6 °F - 45.1 °F 49% 29.88 in 10.0 mi SW 3.5 mph - N/A   Clear
4:15 PM 63.9 °F - 45.7 °F 52% 29.87 in 10.0 mi SSW 3.5 mph - N/A   Clear
4:35 PM 61.9 °F - 47.3 °F 59% 29.87 in 10.0 mi Calm Calm - N/A   Clear
4:55 PM 60.3 °F - 46.9 °F 61% 29.87 in 10.0 mi Calm Calm - N/A   Clear
5:15 PM 59.0 °F - 47.7 °F 66% 29.87 in 10.0 mi Calm Calm - N/A   Clear
5:35 PM 56.8 °F - 47.3 °F 70% 29.86 in 10.0 mi Calm Calm - N/A   Clear
5:55 PM 55.4 °F - 48.7 °F 78% 29.87 in 10.0 mi Calm Calm - N/A   Clear
6:15 PM 55.0 °F - 47.8 °F 77% 29.86 in 10.0 mi Calm Calm - N/A   Clear
6:35 PM 53.6 °F - 48.0 °F 81% 29.86 in 10.0 mi Calm Calm - N/A   Clear
6:55 PM 53.2 °F - 48.0 °F 82% 29.86 in 10.0 mi Calm Calm - N/A   Clear
7:15 PM 52.5 °F - 47.3 °F 82% 29.86 in 10.0 mi Calm Calm - N/A   Clear
7:35 PM 51.3 °F - 46.8 °F 85% 29.87 in 10.0 mi Calm Calm - N/A   Clear
7:55 PM 50.9 °F - 46.4 °F 85% 29.88 in 10.0 mi North 3.5 mph - N/A   Clear
8:15 PM 52.2 °F - 46.8 °F 82% 29.88 in 10.0 mi Calm Calm - N/A   Clear
8:35 PM 54.7 °F - 47.7 °F 77% 29.88 in 10.0 mi East 5.8 mph - N/A   Clear
8:55 PM 55.4 °F - 48.6 °F 78% 29.88 in 10.0 mi ENE 4.6 mph - N/A   Clear
9:15 PM 54.9 °F - 49.1 °F 81% 29.88 in 10.0 mi East 6.9 mph - N/A   Clear
9:35 PM 54.1 °F - 49.1 °F 83% 29.88 in 10.0 mi East 5.8 mph - N/A   Clear
9:55 PM 54.0 °F - 49.3 °F 84% 29.87 in 10.0 mi East 5.8 mph - N/A   Clear
10:15 PM 54.0 °F - 49.5 °F 85% 29.87 in 10.0 mi East 4.6 mph - N/A   Clear
10:35 PM 53.8 °F - 49.5 °F 85% 29.87 in 10.0 mi East 4.6 mph - N/A   Clear
10:55 PM 53.6 °F - 49.5 °F 86% 29.87 in 10.0 mi East 5.8 mph - N/A   Clear
11:15 PM 53.2 °F - 49.5 °F 87% 29.86 in 10.0 mi East 6.9 mph - N/A   Clear
11:35 PM 53.2 °F - 49.6 °F 88% 29.86 in 10.0 mi East 6.9 mph - N/A   Clear
11:55 PM 53.2 °F - 49.6 °F 88% 29.86 in 10.0 mi East 8.1 mph - N/A   Clear